Погода в Кыргызе

Узбекистан     39°02′07″N   66°35′47″E
темп.,
°C
ветер,
м/с
пор.,
м/с
влажн.,
%
обл.,
%
осадки,
мм/ч
давл.,
гПа
погр.,
м
27 февраля, сб
сб2723:00−3с11335 0.0 103024
02:00−2с003296 0.0 102822
05:00−2ссз113298 0.0 102850
08:00−1ююв1131100 0.0 102980
11:00+3ююз122794 0.0 1029675
14:00+6юз332515 0.0 10281163
17:00+7зюз22267 0.0 10271218
20:00+3вюв11410 0.0 102829
28 февраля, вс
вс2823:00+2всв23490 0.0 102735
02:00+1св22460 0.0 102524
05:00+1св23460 0.0 102330
08:00+2св23460 0.0 102342
11:00+10св22270 0.0 1021364
14:00+14с22200 0.0 1018794
17:00+14сз11190 0.0 1017928
20:00+9ссв11342 0.0 101822
1 марта, пн
пн123:00+8в123918 0.0 101922
02:00+7в234077 0.0 101926
05:00+7в343488 0.0 101827
08:00+8в343041 0.0 101945
11:00+18ю481421 0.0 10181502
14:00+20юз710130 0.0 10172588
17:00+19зюз68170 0.0 10171120
20:00+13юз232620 0.0 101923
2 марта, вт
вт223:00+11всв343436 0.0 101943
02:00+11в3430100 0.0 102064
05:00+11ссв3329100 0.0 101940
08:00+12всв2330100 0.0 102031
11:00+16з1121100 0.0 1020258
14:00+18з4519100 0.0 10191223
17:00+17сз3224100 0.0 1019769
20:00+13ссз593399 0.0 1020278
3 марта, ср
ср323:00+11сз224597 0.0 102131
02:00+11ююв2249100 0.0 102035
05:00+10с1251100 0.0 102023
08:00+10ссз005399 0.0 102022
11:00+13зсз454698 0.0 1020511
14:00+16зюз453697 0.0 10181532
17:00+15зюз343899 0.0 10171628
20:00+12св344768 0.0 101749